Location: The D'Auria's Ocala Star Observatory
(29.0276°N, 82.1742°W)
Time: 04:11:29
(UTC-04:00)

Daily predictions for brighter satellites

Satellite Brightness Start Highest point End
(mag) Time Altitude Azimuth Time Altitude Azimuth Time Altitude Azimuth
Cosmos 1833 Rocket 4.4 00:20:05 10° NNW 00:22:38 28° NNW 00:22:38 28° NNW
Cosmos 2082 Rocket 4.2 00:35:03 10° NNW 00:37:16 23° NW 00:37:16 23° NW
Cosmos 2369 Rocket 4.4 01:28:03 21° N 01:28:03 21° N 01:29:55 10° N
Cosmos 1943 Rocket 4.3 02:15:17 21° N 02:15:17 21° N 02:17:10 10° N
ATLAS 2AS CENTAUR R/B 3.4 03:05:33 10° NNW 03:11:23 53° NW 03:11:23 53° NW
CZ-3B DEB 4.0 02:53:29 10° NW 03:19:09 65° WSW 03:19:53 64° SW
CZ-2D R/B 3.9 03:18:15 10° NE 03:22:04 24° E 03:22:04 24° E
Cosmos 2227 Rocket 3.9 03:23:49 10° N 03:28:39 28° ENE 03:30:44 22° E
Cosmos 2369 4.4 03:38:38 49° NNE 03:38:38 49° NNE 03:42:42 10° NNE
Cosmos 2297 Rocket 3.9 03:45:39 10° N 03:50:35 30° ENE 03:55:29 10° SE
Cosmos 1891 Rocket 4.4 04:02:57 71° NW 04:02:57 71° NW 04:08:27 10° N
ATLAS CENTAUR R/B 2.4 04:09:11 53° N 04:09:11 53° N 04:13:09 10° NNE
SL-16 R/B 2.8 04:07:20 37° SE 04:09:47 63° ENE 04:15:52 10° N
Resurs 1-4 Rocket 2.1 04:07:15 10° NNE 04:12:18 79° ENE 04:12:18 79° ENE
Cosmos 2034 Rocket 4.0 04:14:41 62° WNW 04:14:41 62° WNW 04:20:39 10° N
CZ-3 R/B 4.1 04:01:27 37° SW 04:16:38 59° SSE 04:27:07 10° E
Cosmos 1898 Rocket 3.6 04:12:53 10° NNW 04:18:14 74° ENE 04:18:52 65° SE
Okean O Rocket 3.1 04:17:57 10° NE 04:21:50 31° E 04:22:43 28° ESE
Cosmos 972 4.3 04:19:13 10° NNW 04:24:07 83° ENE 04:24:12 83° E
Cosmos 841 Rocket 3.4 04:26:34 77° SSE 04:26:53 82° ESE 04:32:10 10° NNE
Milstar 3 Cent rocket 2.2 04:28:17 69° WSW 04:28:59 81° S 04:37:12 10° E
Cosmos 1076 Rocket 4.1 04:28:48 10° N 04:33:01 52° E 04:33:52 44° ESE
Cosmos 1937 Rocket 3.6 04:29:13 10° N 04:34:23 73° ENE 04:36:55 31° SSE
SME Rocket 3.5 04:34:57 66° SW 04:35:17 68° W 04:41:58 10° NNW
Cosmos 1763 Rocket 3.4 04:35:24 69° W 04:35:37 70° WNW 04:40:51 10° N
UNK 3.6 04:36:37 77° WNW 04:36:37 77° WNW 04:41:09 10° NNW
Nadezhda 4 Rocket 3.9 04:31:41 10° N 04:37:53 87° W 04:40:34 37° S
GPS 2-04 Rocket1 3.8 04:40:11 35° NNW 04:40:25 35° N 04:43:57 10° ENE
ARIANE 5 R/B 3.3 04:36:01 10° N 04:40:22 36° WNW 04:40:22 36° WNW
Cosmos 1656 4.3 04:42:41 39° WNW 04:43:04 40° WNW 04:48:24 10° N
Cosmos-2242 2.9 04:49:20 66° S 04:49:56 88° E 04:54:15 10° N
Delta 7925 Rocket 3.5 04:49:46 54° SSW 04:50:12 56° S 04:54:58 10° ESE
Cosmos 1408 Rocket 3.5 04:47:04 10° N 04:51:28 88° E 04:52:38 49° S
Cosmos 1766 Rocket 3.6 04:47:43 10° N 04:52:08 81° E 04:53:43 39° SSE
ASTRO E2 3.0 04:52:59 52° NW 04:53:41 64° N 04:57:42 10° E
Cosmos 1697 Rocket 3.2 04:55:03 39° W 04:56:03 42° WNW 05:01:25 10° N
CZ-4B R/B 3.5 04:53:44 10° NNE 04:57:31 47° E 04:58:57 30° SSE
CZ-2C R/B 4.5 04:53:08 10° SSE 04:57:44 53° ENE 05:02:18 10° N
Delta 128 4.4 04:58:42 34° S 04:59:10 34° SSE 05:03:38 10° E
Cosmos 2082 4.0 04:54:43 10° NW 04:59:57 41° WSW 05:00:19 41° WSW
Mugunghwa Rocket 4.4 05:00:53 36° SSW 05:01:28 37° SSW 05:07:10 10° SE
CZ-2D R/B 3.0 04:57:49 10° N 05:02:35 32° WNW 05:03:24 30° W
CZ-4B DEB 4.4 04:57:16 10° NNE 05:02:47 68° ESE 05:06:41 20° S
Cosmos 1980 Rocket 2.2 05:01:10 41° SW 05:03:04 65° WNW 05:08:40 10° NNE
Cosmos 1634 Rocket 3.9 05:00:37 32° SSW 05:03:39 69° W 05:09:54 10° N
SL-8 R/B 3.8 05:05:21 45° WSW 05:05:52 47° SW 05:10:26 10° SSE
In-Cosmos 22 4.2 05:00:40 10° N 05:05:56 73° E 05:11:14 10° SSE
Cosmos 1842 Rocket 4.0 05:03:46 22° SSE 05:06:33 62° E 05:10:59 10° NNE
Cosmos 2026 Rocket 4.4 05:03:03 10° N 05:09:21 65° E 05:15:30 10° SSE
Orbus 7S 4.1 05:12:03 25° SSE 05:12:03 25° SSE 05:14:20 10° ESE
Cosmos 540 Rocket 3.5 05:08:44 26° S 05:11:43 79° ESE 05:16:54 10° NNE
Cosmos 2227 Rocket 3.0 05:07:46 10° NW 05:12:25 29° W 05:12:25 29° W
PSLV R/B 3.9 05:08:59 10° N 05:12:44 53° WNW 05:13:21 47° WSW
Cosmos 2322 Rocket 2.8 05:08:28 15° S 05:12:54 52° ESE 05:18:21 10° NNE
SWIFT 3.6 05:13:40 24° S 05:13:40 24° S 05:16:44 10° SE
Cosmos 1470 3.6 05:10:47 16° SSE 05:13:38 50° E 05:17:28 10° NNE
Cosmos 1544 2.9 05:14:46 37° S 05:16:07 87° W 05:19:48 10° N
MOZ.5/SAFIR/RUBIN 5/SL-8 3.8 05:14:37 10° SSE 05:19:22 84° ENE 05:24:05 10° N
USA 81 4.0 05:15:48 20° S 05:19:33 77° W 05:24:51 10° N
Cosmos 2195 Rocket 4.4 05:13:45 10° N 05:19:53 88° W 05:26:00 10° S
Cosmos 1674 4.4 05:17:21 10° NNE 05:20:47 33° E 05:24:11 10° SSE
IRS-1C Rocket 4.5 05:18:30 10° N 05:23:29 45° WNW 05:26:05 26° SW
Cosmos 1092 Rocket 4.3 05:18:53 10° NNW 05:24:51 46° W 05:29:47 15° SSW
GEOS 3 Rocket 4.1 05:22:33 10° S 05:27:20 37° WSW 05:32:07 10° NW
ADEOS II 3.1 05:22:20 10° NNE 05:27:21 45° E 05:32:20 10° S
Cosmos 1627 Rocket 4.4 05:22:32 10° N 05:28:49 74° W 05:34:59 10° S
Cosmos 1758 4.4 05:29:52 25° W 05:30:30 27° W 05:33:56 10° NNW
DELTA 2 R/B (1) 4.1 05:27:19 21° SSW 05:30:42 48° SE 05:36:05 10° ENE
Cosmos 2297 Rocket 3.1 05:29:47 10° NW 05:34:25 27° WSW 05:37:17 18° SW
FUSE 4.4 05:32:16 23° WSW 05:35:10 43° SSW 05:40:12 10° ESE
Cosmos 332 Rocket 3.9 05:33:48 21° SSW 05:36:56 59° WNW 05:41:41 10° N
Cosmos 1953 3.7 05:36:41 20° W 05:37:20 21° W 05:40:26 10° NNW
OAO 3 Rocket 3.8 05:38:00 19° W 05:40:33 33° SSW 05:44:44 10° SSE
SL-16 R/B 2.2 05:38:44 12° SSW 05:44:00 84° WNW 05:49:43 10° NNE
Meteor PRIRODA 4.1 05:42:12 10° NNE 05:45:50 60° E 05:49:27 10° S
ISS -0.5 05:45:40 10° NNW 05:48:14 21° NE 05:50:48 10° E
Meteor 1-31 Rocket 4.2 05:46:05 10° NNE 05:49:44 38° E 05:53:20 10° SSE
SL-16 R/B 4.0 05:52:25 14° WSW 05:53:41 14° W 05:56:51 10° WNW
USA 116 3.7 05:52:58 10° SSE 05:55:59 59° ENE 05:59:06 10° N
Cosmos 1428 Rocket 4.4 05:50:06 10° N 05:56:15 80° W 06:02:20 10° S
Okean O Rocket 3.3 05:55:07 10° NNW 05:57:56 17° WNW 06:00:12 12° WSW
Cosmos 371 Rocket 3.5 05:53:39 11° SSW 05:58:13 54° WNW 06:02:56 10° N
BREEZE-M DEB (TANK) 2.7 05:58:22 16° SW 05:58:22 16° SW 06:00:04 10° S
Ariane Rocket 4.5 05:56:35 10° NNE 06:01:15 37° E 06:05:54 10° SSE
Cosmos 1500 Rocket 3.9 05:57:06 10° NNW 06:01:15 43° W 06:05:22 10° SSW
Aureole 1 Rocket 4.2 05:57:26 12° SW 06:02:03 45° WNW 06:08:27 10° N
Cosmos 1125 Rocket 3.7 06:01:19 10° NNW 06:06:19 49° WSW 06:11:17 10° S
Aurora 2 Rocket 2.5 06:04:00 13° WSW 06:06:37 39° S 06:10:12 10° ESE
CZ-4B R/B 4.4 06:03:46 10° NNW 06:08:05 24° WNW 06:12:20 10° WSW
Cosmos 372 Rocket 3.9 06:03:10 10° NNW 06:08:17 88° WSW 06:13:22 10° SSE
Meteor 1-16 Rocket 4.3 06:04:03 10° S 06:09:54 80° W 06:15:52 10° N
Cosmos 1733 4.2 06:09:05 10° SW 06:12:23 28° W 06:15:42 10° NNW
RESURS DK-1 3.0 06:08:20 10° NNW 06:12:25 61° ENE 06:16:29 10° SSE
Cosmos 2263 Rocket 4.4 06:07:35 10° N 06:12:26 30° ENE 06:17:15 10° SE
Cosmos 2151 3.0 06:12:28 10° NNW 06:16:46 67° W 06:21:00 10° S
Cosmos 2227 4.4 06:12:29 10° NNW 06:18:03 51° WSW 06:23:35 10° S
SWAS 4.5 06:15:13 10° SSW 06:19:28 69° WNW 06:23:45 10° NNE
GPS 2-04 Rocket1 4.2 06:17:24 10° WNW 06:20:48 30° N 06:24:03 10° ENE
Meteor 2-1 Rocket 4.3 06:15:53 10° S 06:21:37 79° W 06:27:15 10° N
